Skip Page Navigation
NASA JPL Caltech
NASA Logo - Jet Propulsion Laboratory + View the NASA Portal
+ Center for Near-Earth Object Studies
JPL Home Earth Solar System Stars & Galaxies Technology
JPL Solar System Dynamics
BODIES ORBITS EPHEMERIDES TOOLS PHYSICAL DATA DISCOVERY FAQ SITE MAP
JPL Small-Body Database Browser
Search: [ help ]  
249904 (2001 SG90)
Classification: Main-belt Asteroid          SPK-ID: 2249904
Ephemeris | Orbit Diagram | Orbital Elements | Mission Design | Physical Parameters | Discovery Circumstances ]

[ show orbit diagram ]
Orbital Elements at Epoch 2459000.5 (2020-May-31.0) TDB
Reference: JPL 20 (heliocentric ecliptic J2000)
 Element Value Uncertainty (1-sigma)   Units 
e .03308698980319519 5.5054e-08  
a 2.688621076492253 2.5543e-08 au
q 2.599662698349698 1.536e-07 au
i 11.08848628352413 6.9499e-06 deg
node 181.0770335056165 2.3493e-05 deg
peri 67.91830819114851 0.00011418 deg
M 186.9918556845481 0.00011621 deg
tp 2459774.350151992616
(2022-Jul-13.85015199)
0.00052521 TDB
period 1610.248210103832
4.41
2.2947e-05
6.283e-08
d
yr
n .2235680174901648 3.1859e-09 deg/d
Q 2.777579454634808 2.6388e-08 au
  Orbit Determination Parameters
   # obs. used (total)      364  
   data-arc span      6650 days (18.21 yr)  
   first obs. used      2001-09-11  
   last obs. used      2019-11-26  
   planetary ephem.      DE431  
   SB-pert. ephem.      SB431-N16  
   condition code      0  
   norm. resid. RMS      .56894  
   source      ORB  
   producer      Otto Matic  
   solution date      2019-Dec-14 16:46:17  

Additional Information
 Earth MOID = 1.61097 au 
 Jupiter MOID = 2.21593 au 
 T_jup = 3.345 
[ show covariance matrix ]

Ephemeris | Orbit Diagram | Orbital Elements | Mission Design | Physical Parameters | Discovery Circumstances ]

Physical Parameter Table
Parameter Symbol Value Units Sigma Reference Notes
absolute magnitude H 16.0   n/a MPO503177  

249904 (2001 SG90)          Discovered 2001-Sep-20 by LINEAR at Socorro
Reference: 20100923/Numbers.arcLast Updated: 2010-09-27

Alternate Designations
 2001 SG90 = 2004 FE26 
Ephemeris | Orbit Diagram | Orbital Elements | Mission Design | Physical Parameters | Discovery Circumstances ]
ABOUT SSD CREDITS/AWARDS PRIVACY/COPYRIGHT GLOSSARY LINKS
FirstGov 2020-Sep-19 16:59 UT
(server date/time)  
NASA Home Page
Site Manager:   Ryan S. Park
Webmaster  Alan B. Chamberlin